Weather in Oparino

Russia / Kemerovo Oblast     55°25′50″N   85°13′56″E
temp.,
°C
wind,
m/s
gust,
m/s
humid.,
%
clouds,
%
prec.,
mm/h
press.,
hPa
HPBL,
m
22 april, thu
thu2201:00−3ene367967 0.2 1030220
04:00−4ne388125 0.0 1032244
07:00−3ne48785 0.0 1035323
10:000ne68575 0.0 10371175
13:00+2ne6747100 0.2 10381649
16:00+3nne6747100 0.3 10391674
19:00+2nne575651 0.4 10411075
22:00−2nne49855 0.0 1044244
23 april, fri
fri2301:00−3nne39925 0.0 1044249
04:00−3nne38965 0.0 1044233
07:00−2nne39895 0.0 1045302
10:00+2ne67635 0.0 10451000
13:00+4ne6847100 0.1 10431905
16:00+5ne6744100 0.0 10422064
19:00+4ne576290 0.1 10421221
22:00+1nne410775 0.1 1042306
24 april, sat
sat2401:00−1nne410855 0.1 1041285
04:00−1nne3986100 0.0 1040264
07:00−1nne41083100 0.0 1039339
10:00+3nne6866100 0.0 1037884
13:00+5nne5651100 0.0 10351736
16:00+6n6647100 0.1 10331863
19:00+5nne555678 0.1 10331260
22:00+1n36786 0.0 1034135
25 april, sun
sun2501:000n23825 0.0 103340
04:00−1nnw23835 0.0 103345
07:000nnw12785 0.0 103494
10:00+4nnw33625 0.0 1033800
13:00+6nw335186 0.0 10321500
16:00+7nw234893 0.1 10311419
19:00+7wnw124887 0.1 10301177
22:00+4ese1164100 0.0 103111
26 april, mon
mon2601:00+3se2269100 0.0 103010
04:00+2sse2272100 0.0 103012
07:00+2sse2274100 0.0 103041
10:00+6se3362100 0.0 1029411
13:00+8se3350100 0.0 10281285
16:00+10se334690 0.0 10271532
19:00+10ssw455066 0.0 10291079
22:00+7ssw4107098 0.0 1029196